CZ-4 DEB, 26203

Orbit data source: Space-Track

CZ-4 DEB, 26203 is space debris in SSO originally from a launch on Thu, 14 Oct 1999 UTC launched from the Taiyaun Space Center, China (TSC). Debris objects in space refer to the collection of defunct objects orbiting the Earth. Examples of debris include non-operational satellites, rocket bodies, and fragments generated from explosions, collisions, or faulty payload assembly.

Loading next visibility...
Identifier
26203, 1999-057CR
Orbit
SSO
Country
Flag of CNCN / PRC
Related business
Manufacturer
Unknown
Mission
Spacecraft
Bus & Motor
Unknown
Mass
Unknown
Launch date (UTC)
1999-10-14 (26 years ago)
Launch vehicle
Unknown
Launch site
Taiyaun Space Center, China (TSC)
Object type
Payload
Rocket body
Debris
Shape & HBR
Unknown shape, 0.1 m
Radar Cross Section
Small (<0.1 m²)

Expand to show TLE details & history
Last TLE update: 13 hours ago

TLE from 13 hours ago
0 CZ-4 DEB
1 26203U 99057CR  25300.37781071  .00000891  00000-0  31828-3 0  9990
2 26203  98.3128  77.5441 0107451 296.0844 117.5132 14.33333561335604
Epoch: 2025-10-27T09:04Z
TLE epoch observation values (Epoch: 2025-10-27T09:04:02.845Z)
Latitude
53.94219°
Longitude
-105.96297°
Altitude
825.646 km
Speed
7.426 km/s
True Right ascension
04h 24m 07s
True Declination
53° 46' 48"
Sunlit
Object was in full shadow at epoch
Visualization orbit readout
Latitude
Unknown
Longitude
Unknown
Altitude
Unknown
Speed
Unknown
Apparent Right ascension
Unknown
Apparent Declination
Unknown
Sunlit
N/A
Visualization observer readout
Local Sidereal Time
17:45:23
Azimuth
Unknown
Elevation
Unknown
Doppler factor
Unknown
Orbital elements
Apogee altitude
854.622 km
Perigee altitude
700.841 km
Semi-major axis
7,155.868 km
Eccentricity
0.01075
Inclination
98.3128°
RAAN
77.5441°
Arg. of periapsis
296.0844°
True anomaly
118.59844°
Mean anomaly
117.5132°
Eccentric anomaly
118.0565°
Mean motion
3.5855 °/min
Orbital period
100.4 mins
BSTAR
0.00031828
Loading maneuver chart data...
Computing Atmospheric mass density...
Loading historical data...
Loading historical data...
Loading historical data...
Loading historical data...
Loading historical data...
Loading historical data...
Loading historical data...

Documentation

Showing up to 5 results
|